| time (UTC) | temp F | wind direction | speed MPH | gust MPH | rain 1hr in | rain 24hr in | rain mn in | humidity % | barometer mb |
| 20260902130216 | 88 | 6 | 1.0 | 3.0 | 0.00 | 0.00 | 0.00 | 72 | |
| 20260902125711 | 88 | 29 | 2.0 | 7.0 | 0.00 | 0.00 | 0.00 | 72 | |
| 20260902125208 | 88 | 30 | 3.0 | 9.0 | 0.00 | 0.00 | 0.00 | 72 | |
| 20260902124703 | 88 | 103 | 3.0 | 6.0 | 0.00 | 0.00 | 0.00 | 72 | |
| 20260902124203 | 88 | 300 | 3.0 | 7.0 | 0.00 | 0.00 | 0.00 | 73 | |
| 20260902123659 | 87 | 343 | 1.0 | 6.0 | 0.00 | 0.00 | 0.00 | 74 | |
| 20260902123154 | 87 | 244 | 4.0 | 8.0 | 0.00 | 0.00 | 0.00 | 74 | |
| 20260902122648 | 87 | 357 | 2.0 | 4.0 | 0.00 | 0.00 | 0.00 | 74 | |
| 20260902122144 | 86 | 351 | 0.0 | 4.0 | 0.00 | 0.00 | 0.00 | 76 | |
| 20260902121638 | 86 | 80 | 2.0 | 7.0 | 0.00 | 0.00 | 0.00 | 76 | |
| 20260902121133 | 86 | 185 | 2.0 | 3.0 | 0.00 | 0.00 | 0.00 | 76 | |
| 20260902120629 | 86 | 319 | 2.0 | 6.0 | 0.00 | 0.00 | 0.00 | 75 | |
| 20260902120126 | 86 | 355 | 1.0 | 3.0 | 0.00 | 0.00 | 0.00 | 76 | |
| 20260902115620 | 86 | 1 | 3.0 | 7.0 | 0.00 | 0.00 | 0.00 | 76 | |
| 20260902115116 | 85 | 44 | 2.0 | 6.0 | 0.00 | 0.00 | 0.00 | 77 | |
| 20260902114612 | 85 | 145 | 1.0 | 4.0 | 0.00 | 0.00 | 0.00 | 78 | |
| 20260902114111 | 85 | 337 | 1.0 | 4.0 | 0.00 | 0.00 | 0.00 | 79 | |
| 20260902113607 | 85 | 24 | 5.0 | 7.0 | 0.00 | 0.00 | 0.00 | 79 | |
| 20260902113102 | 84 | 270 | 1.0 | 3.0 | 0.00 | 0.00 | 0.00 | 79 | |
| 20260902112557 | 84 | 339 | 1.0 | 4.0 | 0.00 | 0.00 | 0.00 | 80 | |
| 20260902112054 | 84 | 339 | 0.0 | 3.0 | 0.00 | 0.00 | 0.00 | 80 | |
| 20260902111550 | 84 | 339 | 0.0 | 3.0 | 0.00 | 0.00 | 0.00 | 80 | |
| 20260902111045 | 84 | 333 | 4.0 | 6.0 | 0.00 | 0.00 | 0.00 | 81 | |
| 20260902110541 | 84 | 359 | 1.0 | 2.0 | 0.00 | 0.00 | 0.00 | 81 | |
| 20260902110037 | 84 | 268 | 1.0 | 3.0 | 0.00 | 0.00 | 0.00 | 81 | |
| 20260902105532 | 83 | 337 | 0.0 | 1.0 | 0.00 | 0.00 | 0.00 | 81 | |
| 20260902105031 | 83 | 18 | 2.0 | 4.0 | 0.00 | 0.00 | 0.00 | 81 | |
| 20260902104527 | 83 | 341 | 1.0 | 3.0 | 0.00 | 0.00 | 0.00 | 81 | |
| 20260902104021 | 83 | 188 | 2.0 | 3.0 | 0.00 | 0.00 | 0.00 | 81 | |
| 20260902103517 | 83 | 357 | 1.0 | 3.0 | 0.00 | 0.00 | 0.00 | 81 | |
| 20260902103012 | 83 | 320 | 2.0 | 4.0 | 0.00 | 0.00 | 0.00 | 81 | |
| 20260902102508 | 83 | 109 | 0.0 | 2.0 | 0.00 | 0.00 | 0.00 | 80 | |
| 20260902102005 | 83 | 112 | 2.0 | 4.0 | 0.00 | 0.00 | 0.00 | 80 | |
| 20260902101506 | 83 | 230 | 1.0 | 2.0 | 0.00 | 0.00 | 0.00 | 80 | |
| 20260902101004 | 83 | 330 | 0.0 | 4.0 | 0.00 | 0.00 | 0.00 | 80 | |
| 20260902100500 | 83 | 333 | 2.0 | 3.0 | 0.00 | 0.00 | 0.00 | 80 | |
| 20260902095959 | 83 | 355 | 1.0 | 4.0 | 0.00 | 0.00 | 0.00 | 80 | |
| 20260902095454 | 83 | 342 | 2.0 | 7.0 | 0.00 | 0.00 | 0.00 | 80 | |
| 20260902094953 | 83 | 344 | 2.0 | 3.0 | 0.00 | 0.00 | 0.00 | 80 | |
| 20260902094449 | 83 | 339 | 2.0 | 2.0 | 0.00 | 0.00 | 0.00 | 80 | |
| 20260902093950 | 83 | 341 | 1.0 | 2.0 | 0.00 | 0.00 | 0.00 | 81 | |
| 20260902093445 | 83 | 68 | 3.0 | 4.0 | 0.00 | 0.00 | 0.00 | 81 | |
| 20260902092944 | 83 | 56 | 0.0 | 4.0 | 0.00 | 0.00 | 0.00 | 81 | |
| 20260902092440 | 83 | 341 | 1.0 | 2.0 | 0.00 | 0.00 | 0.00 | 81 | |
| 20260902091939 | 83 | 9 | 1.0 | 3.0 | 0.00 | 0.00 | 0.00 | 81 | |
| 20260902091435 | 83 | 351 | 2.0 | 3.0 | 0.00 | 0.00 | 0.00 | 81 | |
| 20260902090931 | 83 | 350 | 0.0 | 3.0 | 0.00 | 0.00 | 0.00 | 81 | |
| 20260902090431 | 83 | 40 | 2.0 | 4.0 | 0.00 | 0.00 | 0.00 | 80 | |
| 20260902085930 | 83 | 91 | 1.0 | 6.0 | 0.00 | 0.00 | 0.00 | 80 | |
| 20260902085425 | 83 | 249 | 1.0 | 3.0 | 0.00 | 0.00 | 0.00 | 80 | |
| 20260902084920 | 83 | 29 | 2.0 | 6.0 | 0.00 | 0.00 | 0.00 | 80 | |
| 20260902084417 | 83 | 321 | 1.0 | 7.0 | 0.00 | 0.00 | 0.00 | 81 | |
| 20260902083907 | 83 | 149 | 1.0 | 3.0 | 0.00 | 0.00 | 0.00 | 81 | |
| 20260902083406 | 83 | 16 | 1.0 | 3.0 | 0.00 | 0.00 | 0.00 | 81 | |
| 20260902082901 | 83 | 344 | 1.0 | 7.0 | 0.00 | 0.00 | 0.00 | 81 | |
| 20260902082357 | 83 | 340 | 0.0 | 2.0 | 0.00 | 0.00 | 0.00 | 81 | |
| 20260902081854 | 84 | 288 | 1.0 | 4.0 | 0.00 | 0.00 | 0.00 | 81 | |
| 20260902081349 | 83 | 328 | 2.0 | 4.0 | 0.00 | 0.00 | 0.00 | 81 | |
| 20260902080844 | 83 | 68 | 2.0 | 3.0 | 0.00 | 0.00 | 0.00 | 81 | |
| 20260902080341 | 83 | 343 | 0.0 | 4.0 | 0.00 | 0.00 | 0.00 | 81 | |
| 20260902075840 | 83 | 169 | 1.0 | 2.0 | 0.00 | 0.00 | 0.00 | 81 | |
| 20260902075336 | 83 | 329 | 1.0 | 3.0 | 0.00 | 0.00 | 0.00 | 81 | |
| 20260902074831 | 83 | 290 | 2.0 | 7.0 | 0.00 | 0.00 | 0.00 | 81 | |
| 20260902074327 | 83 | 345 | 1.0 | 2.0 | 0.00 | 0.00 | 0.00 | 81 | |
| 20260902073827 | 83 | 328 | 1.0 | 3.0 | 0.00 | 0.00 | 0.00 | 81 | |
| 20260902073324 | 83 | 342 | 1.0 | 6.0 | 0.00 | 0.00 | 0.00 | 81 | |
| 20260902072820 | 83 | 85 | 3.0 | 6.0 | 0.00 | 0.00 | 0.00 | 81 | |
| 20260902072315 | 83 | 313 | 1.0 | 4.0 | 0.00 | 0.00 | 0.00 | 81 | |
| 20260902071811 | 83 | 86 | 2.0 | 3.0 | 0.00 | 0.00 | 0.00 | 81 | |
| 20260902071306 | 83 | 352 | 1.0 | 2.0 | 0.00 | 0.00 | 0.00 | 81 | |
| 20260902070802 | 83 | 305 | 1.0 | 6.0 | 0.00 | 0.00 | 0.00 | 81 | |
| 20260902070302 | 84 | 257 | 2.0 | 3.0 | 0.00 | 0.00 | 0.00 | 82 | |
| 20260902065801 | 84 | 297 | 1.0 | 4.0 | 0.00 | 0.00 | 0.00 | 81 | |
| 20260902065256 | 84 | 62 | 2.0 | 4.0 | 0.00 | 0.00 | 0.00 | 81 | |
| 20260902064752 | 84 | 19 | 1.0 | 6.0 | 0.00 | 0.00 | 0.00 | 81 | |
| 20260902064248 | 84 | 76 | 2.0 | 4.0 | 0.00 | 0.00 | 0.00 | 81 | |
| 20260902063743 | 84 | 358 | 2.0 | 4.0 | 0.00 | 0.00 | 0.00 | 81 | |
| 20260902063238 | 84 | 2 | 3.0 | 8.0 | 0.00 | 0.00 | 0.00 | 81 | |
| 20260902062737 | 84 | 355 | 0.0 | 2.0 | 0.00 | 0.00 | 0.00 | 81 | |
| 20260902062232 | 84 | 26 | 2.0 | 4.0 | 0.00 | 0.00 | 0.00 | 81 | |
| 20260902061731 | 84 | 344 | 2.0 | 8.0 | 0.00 | 0.00 | 0.00 | 81 | |
| 20260902061226 | 84 | 44 | 2.0 | 4.0 | 0.00 | 0.00 | 0.00 | 81 | |
| 20260902060723 | 84 | 334 | 2.0 | 7.0 | 0.00 | 0.00 | 0.00 | 81 | |
| 20260902060219 | 84 | 270 | 0.0 | 6.0 | 0.00 | 0.00 | 0.00 | 81 | |
| 20260902055714 | 84 | 20 | 1.0 | 2.0 | 0.00 | 0.00 | 0.00 | 81 | |
| 20260902055210 | 84 | 67 | 3.0 | 8.0 | 0.00 | 0.00 | 0.00 | 80 | |
| 20260902054705 | 84 | 359 | 2.0 | 2.0 | 0.00 | 0.00 | 0.00 | 80 | |
| 20260902054201 | 84 | 294 | 1.0 | 3.0 | 0.00 | 0.00 | 0.00 | 81 | |
| 20260902053656 | 84 | 355 | 2.0 | 3.0 | 0.00 | 0.00 | 0.00 | 81 | |
| 20260902053156 | 84 | 108 | 3.0 | 6.0 | 0.00 | 0.00 | 0.00 | 80 | |
| 20260902052655 | 84 | 323 | 1.0 | 4.0 | 0.00 | 0.00 | 0.00 | 80 | |
| 20260902052151 | 84 | 349 | 3.0 | 8.0 | 0.00 | 0.00 | 0.00 | 80 | |
| 20260902051650 | 84 | 6 | 0.0 | 4.0 | 0.00 | 0.00 | 0.00 | 80 | |
| 20260902051145 | 84 | 74 | 3.0 | 6.0 | 0.00 | 0.00 | 0.00 | 80 | |
| 20260902050645 | 84 | 80 | 2.0 | 4.0 | 0.00 | 0.00 | 0.00 | 80 | |
| 20260902050140 | 84 | 333 | 1.0 | 7.0 | 0.00 | 0.00 | 0.00 | 80 | |
| 20260902045635 | 84 | 150 | 3.0 | 8.0 | 0.00 | 0.00 | 0.00 | 80 | |
| 20260902045132 | 84 | 123 | 1.0 | 4.0 | 0.00 | 0.00 | 0.00 | 81 | |
| 20260902044632 | 84 | 155 | 2.0 | 9.0 | 0.00 | 0.00 | 0.00 | 81 | |
| 20260902044128 | 84 | 339 | 2.0 | 4.0 | 0.00 | 0.00 | 0.00 | 81 | |
| 20260902043623 | 84 | 335 | 2.0 | 6.0 | 0.00 | 0.00 | 0.00 | 81 | |
| 20260902043118 | 84 | 46 | 4.0 | 6.0 | 0.00 | 0.00 | 0.00 | 81 | |
| 20260902042617 | 84 | 54 | 3.0 | 7.0 | 0.00 | 0.00 | 0.00 | 81 | |
| 20260902042113 | 84 | 355 | 1.0 | 4.0 | 0.00 | 0.00 | 0.00 | 81 | |
| 20260902041612 | 84 | 1 | 2.0 | 6.0 | 0.00 | 0.00 | 0.00 | 81 | |
| 20260902041108 | 84 | 79 | 3.0 | 6.0 | 0.00 | 0.00 | 0.00 | 80 | |
| 20260902040608 | 84 | 68 | 5.0 | 7.0 | 0.00 | 0.00 | 0.00 | 80 | |
| 20260902035601 | 84 | 1 | 2.0 | 7.0 | 0.00 | 0.00 | 0.00 | 80 | |
| 20260902035056 | 84 | 48 | 2.0 | 7.0 | 0.00 | 0.00 | 0.00 | 79 | |
| 20260902034555 | 84 | 339 | 3.0 | 6.0 | 0.00 | 0.00 | 0.00 | 79 | |
| 20260902034054 | 84 | 54 | 2.0 | 6.0 | 0.00 | 0.00 | 0.00 | 79 | |
| 20260902033554 | 84 | 13 | 2.0 | 4.0 | 0.00 | 0.00 | 0.00 | 79 | |
| 20260902033049 | 84 | 338 | 1.0 | 3.0 | 0.00 | 0.00 | 0.00 | 79 | |
| 20260902032548 | 84 | 262 | 4.0 | 8.0 | 0.00 | 0.00 | 0.00 | 79 | |
| 20260902032043 | 84 | 70 | 1.0 | 4.0 | 0.00 | 0.00 | 0.00 | 79 | |
| 20260902031538 | 84 | 45 | 3.0 | 6.0 | 0.00 | 0.00 | 0.00 | 79 | |
| 20260902031034 | 84 | 291 | 1.0 | 4.0 | 0.00 | 0.00 | 0.00 | 80 | |
| 20260902030528 | 84 | 204 | 3.0 | 11.0 | 0.00 | 0.00 | 0.00 | 79 | |
| 20260902030028 | 85 | 276 | 3.0 | 4.0 | 0.00 | 0.00 | 0.00 | 79 | |
| 20260902025529 | 84 | 47 | 3.0 | 4.0 | 0.00 | 0.00 | 0.00 | 79 | |
| 20260902025024 | 84 | 302 | 0.0 | 4.0 | 0.00 | 0.00 | 0.00 | 79 | |
| 20260902024520 | 84 | 313 | 1.0 | 3.0 | 0.00 | 0.00 | 0.00 | 79 | |
| 20260902024019 | 84 | 357 | 0.0 | 7.0 | 0.00 | 0.00 | 0.00 | 79 | |
| 20260902023515 | 84 | 185 | 2.0 | 6.0 | 0.00 | 0.00 | 0.00 | 79 | |
| 20260902023015 | 84 | 317 | 0.0 | 1.0 | 0.00 | 0.00 | 0.00 | 80 | |
| 20260902022509 | 84 | 103 | 3.0 | 4.0 | 0.00 | 0.00 | 0.00 | 80 | |
| 20260902022005 | 84 | 47 | 2.0 | 7.0 | 0.00 | 0.00 | 0.00 | 80 | |
| 20260902021501 | 84 | 358 | 2.0 | 6.0 | 0.00 | 0.00 | 0.00 | 80 | |
| 20260902020955 | 84 | 320 | 1.0 | 2.0 | 0.00 | 0.00 | 0.00 | 80 | |
| 20260902020452 | 85 | 342 | 1.0 | 3.0 | 0.00 | 0.00 | 0.00 | 80 | |
| 20260902015947 | 85 | 213 | 1.0 | 4.0 | 0.00 | 0.00 | 0.00 | 80 | |
| 20260902015443 | 85 | 25 | 1.0 | 6.0 | 0.00 | 0.00 | 0.00 | 80 | |
| 20260902014938 | 85 | 335 | 3.0 | 7.0 | 0.00 | 0.00 | 0.00 | 80 | |
| 20260902014435 | 85 | 345 | 2.0 | 3.0 | 0.00 | 0.00 | 0.00 | 80 | |
| 20260902013933 | 85 | 350 | 1.0 | 6.0 | 0.00 | 0.00 | 0.00 | 79 | |
| 20260902013429 | 85 | 10 | 1.0 | 6.0 | 0.00 | 0.00 | 0.00 | 79 | |
| 20260902012924 | 85 | 82 | 1.0 | 6.0 | 0.00 | 0.00 | 0.00 | 79 | |
| 20260902012420 | 85 | 12 | 3.0 | 8.0 | 0.00 | 0.00 | 0.00 | 80 | |
| 20260902011916 | 85 | 288 | 2.0 | 4.0 | 0.00 | 0.00 | 0.00 | 79 | |
| 20260902011410 | 85 | 117 | 1.0 | 2.0 | 0.00 | 0.00 | 0.00 | 79 | |
| 20260902010904 | 85 | 343 | 4.0 | 6.0 | 0.00 | 0.00 | 0.00 | 79 | |
| 20260902010359 | 85 | 323 | 2.0 | 13.0 | 0.00 | 0.00 | 0.00 | 79 | |
| 20260902005858 | 85 | 3 | 1.0 | 2.0 | 0.00 | 0.00 | 0.00 | 80 | |
| 20260902005352 | 85 | 144 | 3.0 | 4.0 | 0.00 | 0.00 | 0.00 | 80 | |
| 20260902004849 | 85 | 134 | 1.0 | 3.0 | 0.00 | 0.00 | 0.00 | 79 | |
| 20260902004348 | 85 | 78 | 1.0 | 3.0 | 0.00 | 0.00 | 0.00 | 79 | |
| 20260902003843 | 85 | 333 | 1.0 | 3.0 | 0.00 | 0.00 | 0.00 | 79 | |
| 20260902003338 | 85 | 179 | 2.0 | 6.0 | 0.00 | 0.00 | 0.00 | 79 | |
| 20260902002834 | 85 | 282 | 2.0 | 6.0 | 0.00 | 0.00 | 0.00 | 79 | |
| 20260902002328 | 85 | 334 | 2.0 | 7.0 | 0.00 | 0.00 | 0.00 | 78 | |
| 20260902001823 | 85 | 86 | 1.0 | 2.0 | 0.00 | 0.00 | 0.00 | 78 | |
| 20260902001318 | 85 | 80 | 1.0 | 3.0 | 0.00 | 0.00 | 0.00 | 79 | |
| 20260902000813 | 85 | 326 | 2.0 | 4.0 | 0.00 | 0.00 | 0.00 | 79 | |
| 20260902000313 | 85 | 178 | 4.0 | 7.0 | 0.00 | 0.00 | 0.00 | 79 | |
| 20260901235808 | 85 | 355 | 1.0 | 13.0 | 0.00 | 0.00 | 0.00 | 79 | |
| 20260901235307 | 85 | 293 | 1.0 | 4.0 | 0.00 | 0.00 | 0.00 | 79 | |
| 20260901234802 | 85 | 12 | 1.0 | 3.0 | 0.00 | 0.00 | 0.00 | 79 | |
| 20260901234257 | 85 | 340 | 2.0 | 3.0 | 0.00 | 0.00 | 0.00 | 79 | |
| 20260901233752 | 86 | 36 | 2.0 | 7.0 | 0.00 | 0.00 | 0.00 | 78 | |
| 20260901233248 | 86 | 163 | 3.0 | 4.0 | 0.00 | 0.00 | 0.00 | 78 | |
| 20260901232743 | 86 | 11 | 1.0 | 7.0 | 0.00 | 0.00 | 0.00 | 78 | |
| 20260901232238 | 86 | 23 | 1.0 | 4.0 | 0.00 | 0.00 | 0.00 | 77 | |
| 20260901231734 | 86 | 48 | 2.0 | 6.0 | 0.00 | 0.00 | 0.00 | 77 | |
| 20260901231230 | 86 | 16 | 3.0 | 8.0 | 0.00 | 0.00 | 0.00 | 77 | |
| 20260901230725 | 86 | 34 | 2.0 | 7.0 | 0.00 | 0.00 | 0.00 | 77 | |
| 20260901230225 | 86 | 11 | 4.0 | 4.0 | 0.00 | 0.00 | 0.00 | 77 | |
| 20260901225720 | 86 | 14 | 3.0 | 7.0 | 0.00 | 0.00 | 0.00 | 76 | |
| 20260901225214 | 86 | 338 | 1.0 | 6.0 | 0.00 | 0.00 | 0.00 | 76 | |
| 20260901224711 | 86 | 353 | 3.0 | 9.0 | 0.00 | 0.00 | 0.00 | 76 | |
| 20260901224207 | 86 | 24 | 2.0 | 6.0 | 0.00 | 0.00 | 0.00 | 76 | |
| 20260901223702 | 86 | 8 | 2.0 | 3.0 | 0.00 | 0.00 | 0.00 | 75 | |
| 20260901223157 | 87 | 320 | 2.0 | 7.0 | 0.00 | 0.00 | 0.00 | 75 | |
| 20260901222653 | 87 | 67 | 2.0 | 6.0 | 0.00 | 0.00 | 0.00 | 74 | |
| 20260901222149 | 87 | 357 | 3.0 | 4.0 | 0.00 | 0.00 | 0.00 | 74 | |
| 20260901221645 | 87 | 13 | 1.0 | 3.0 | 0.00 | 0.00 | 0.00 | 74 | |
| 20260901221140 | 87 | 316 | 2.0 | 6.0 | 0.00 | 0.00 | 0.00 | 74 | |
| 20260901220639 | 87 | 38 | 2.0 | 4.0 | 0.00 | 0.00 | 0.00 | 74 | |
| 20260901220139 | 87 | 41 | 2.0 | 6.0 | 0.00 | 0.00 | 0.00 | 74 | |
| 20260901215637 | 88 | 133 | 3.0 | 6.0 | 0.00 | 0.00 | 0.00 | 73 | |
| 20260901215132 | 89 | 92 | 3.0 | 6.0 | 0.00 | 0.00 | 0.00 | 72 | |
| 20260901214630 | 89 | 342 | 1.0 | 3.0 | 0.00 | 0.00 | 0.00 | 72 | |
| 20260901214125 | 89 | 44 | 4.0 | 7.0 | 0.00 | 0.00 | 0.00 | 72 | |
| 20260901213624 | 89 | 151 | 2.0 | 7.0 | 0.00 | 0.00 | 0.00 | 71 | |
| 20260901213119 | 88 | 339 | 1.0 | 7.0 | 0.00 | 0.00 | 0.00 | 71 | |
| 20260901212620 | 89 | 72 | 4.0 | 7.0 | 0.00 | 0.00 | 0.00 | 71 | |
| 20260901212116 | 89 | 71 | 2.0 | 8.0 | 0.00 | 0.00 | 0.00 | 70 | |
| 20260901211615 | 90 | 14 | 2.0 | 6.0 | 0.00 | 0.00 | 0.00 | 70 | |
| 20260901211113 | 90 | 72 | 6.0 | 13.0 | 0.00 | 0.00 | 0.00 | 69 | |
| 20260901210608 | 90 | 20 | 3.0 | 8.0 | 0.00 | 0.00 | 0.00 | 68 | |
| 20260901210104 | 90 | 340 | 1.0 | 6.0 | 0.00 | 0.00 | 0.00 | 69 | |
| 20260901205559 | 90 | 89 | 5.0 | 6.0 | 0.00 | 0.00 | 0.00 | 68 | |
| 20260901205059 | 90 | 286 | 2.0 | 9.0 | 0.00 | 0.00 | 0.00 | 68 | |
| 20260901204555 | 90 | 81 | 2.0 | 6.0 | 0.00 | 0.00 | 0.00 | 68 | |
| 20260901204050 | 91 | 319 | 2.0 | 6.0 | 0.00 | 0.00 | 0.00 | 67 | |
| 20260901203550 | 90 | 209 | 4.0 | 6.0 | 0.00 | 0.00 | 0.00 | 68 | |
| 20260901203046 | 90 | 11 | 2.0 | 4.0 | 0.00 | 0.00 | 0.00 | 69 | |
| 20260901202545 | 90 | 359 | 3.0 | 11.0 | 0.00 | 0.00 | 0.00 | 70 | |
| 20260901202042 | 90 | 28 | 2.0 | 7.0 | 0.00 | 0.00 | 0.00 | 68 | |
| 20260901201537 | 90 | 14 | 3.0 | 9.0 | 0.00 | 0.00 | 0.00 | 68 | |
| 20260901201036 | 91 | 30 | 3.0 | 10.0 | 0.00 | 0.00 | 0.00 | 66 | |
| 20260901200536 | 91 | 80 | 4.0 | 6.0 | 0.00 | 0.00 | 0.00 | 65 | |
| 20260901200031 | 91 | 4 | 2.0 | 6.0 | 0.00 | 0.00 | 0.00 | 66 | |
| 20260901195529 | 90 | 5 | 3.0 | 8.0 | 0.00 | 0.00 | 0.00 | 68 | |
| 20260901195029 | 91 | 58 | 3.0 | 9.0 | 0.00 | 0.00 | 0.00 | 66 | |
| 20260901194524 | 91 | 344 | 3.0 | 7.0 | 0.00 | 0.00 | 0.00 | 66 | |
| 20260901194019 | 90 | 139 | 4.0 | 7.0 | 0.00 | 0.00 | 0.00 | 69 | |
| 20260901193519 | 91 | 75 | 5.0 | 8.0 | 0.00 | 0.00 | 0.00 | 68 | |
| 20260901193019 | 91 | 54 | 5.0 | 8.0 | 0.00 | 0.00 | 0.00 | 68 | |
| 20260901192514 | 91 | 346 | 2.0 | 9.0 | 0.00 | 0.00 | 0.00 | 68 | |
| 20260901192010 | 90 | 347 | 1.0 | 6.0 | 0.00 | 0.00 | 0.00 | 69 | |
| 20260901191506 | 91 | 45 | 3.0 | 8.0 | 0.00 | 0.00 | 0.00 | 68 | |
| 20260901191001 | 91 | 93 | 5.0 | 9.0 | 0.00 | 0.00 | 0.00 | 66 | |
| 20260901190457 | 91 | 312 | 5.0 | 8.0 | 0.00 | 0.00 | 0.00 | 64 | |
| 20260901185954 | 91 | 307 | 2.0 | 8.0 | 0.00 | 0.00 | 0.00 | 63 | |
| 20260901185449 | 93 | 69 | 3.0 | 8.0 | 0.00 | 0.00 | 0.00 | 62 | |
| 20260901184948 | 92 | 27 | 3.0 | 6.0 | 0.00 | 0.00 | 0.00 | 62 | |
| 20260901184444 | 93 | 121 | 6.0 | 10.0 | 0.00 | 0.00 | 0.00 | 61 | |
| 20260901183939 | 93 | 85 | 4.0 | 6.0 | 0.00 | 0.00 | 0.00 | 61 | |
| 20260901183438 | 92 | 158 | 1.0 | 3.0 | 0.00 | 0.00 | 0.00 | 62 | |
| 20260901182934 | 93 | 16 | 2.0 | 9.0 | 0.00 | 0.00 | 0.00 | 61 | |
| 20260901182430 | 93 | 250 | 4.0 | 9.0 | 0.00 | 0.00 | 0.00 | 60 | |
| 20260901181919 | 93 | 342 | 2.0 | 4.0 | 0.00 | 0.00 | 0.00 | 61 | |
| 20260901181414 | 93 | 181 | 2.0 | 4.0 | 0.00 | 0.00 | 0.00 | 62 | |
| 20260901180913 | 93 | 212 | 4.0 | 7.0 | 0.00 | 0.00 | 0.00 | 61 | |
| 20260901180413 | 93 | 129 | 3.0 | 6.0 | 0.00 | 0.00 | 0.00 | 62 | |
| 20260901175911 | 92 | 333 | 5.0 | 7.0 | 0.00 | 0.00 | 0.00 | 63 | |
| 20260901175406 | 93 | 345 | 2.0 | 6.0 | 0.00 | 0.00 | 0.00 | 61 | |
| 20260901174901 | 92 | 350 | 2.0 | 4.0 | 0.00 | 0.00 | 0.00 | 62 | |
| 20260901174357 | 92 | 73 | 4.0 | 7.0 | 0.00 | 0.00 | 0.00 | 62 | |
| 20260901173852 | 93 | 106 | 2.0 | 6.0 | 0.00 | 0.00 | 0.00 | 61 | |
| 20260901173347 | 93 | 182 | 4.0 | 4.0 | 0.00 | 0.00 | 0.00 | 62 | |
| 20260901172844 | 93 | 47 | 4.0 | 6.0 | 0.00 | 0.00 | 0.00 | 62 | |
| 20260901172343 | 93 | 185 | 4.0 | 8.0 | 0.00 | 0.00 | 0.00 | 61 | |
| 20260901171841 | 93 | 169 | 3.0 | 6.0 | 0.00 | 0.00 | 0.00 | 61 | |
| 20260901171340 | 94 | 337 | 7.0 | 11.0 | 0.00 | 0.00 | 0.00 | 61 | |
| 20260901170839 | 93 | 237 | 3.0 | 6.0 | 0.00 | 0.00 | 0.00 | 60 | |
| 20260901170334 | 94 | 94 | 4.0 | 10.0 | 0.00 | 0.00 | 0.00 | 60 | |
| 20260901165833 | 93 | 357 | 3.0 | 7.0 | 0.00 | 0.00 | 0.00 | 62 | |
| 20260901165327 | 93 | 315 | 5.0 | 9.0 | 0.00 | 0.00 | 0.00 | 62 | |
| 20260901164824 | 93 | 334 | 6.0 | 10.0 | 0.00 | 0.00 | 0.00 | 60 | |
| 20260901164319 | 93 | 70 | 2.0 | 3.0 | 0.00 | 0.00 | 0.00 | 61 | |
| 20260901163814 | 93 | 306 | 3.0 | 8.0 | 0.00 | 0.00 | 0.00 | 62 | |
| 20260901163314 | 93 | 30 | 3.0 | 9.0 | 0.00 | 0.00 | 0.00 | 62 | |
| 20260901162809 | 93 | 44 | 4.0 | 7.0 | 0.00 | 0.00 | 0.00 | 62 | |
| 20260901162308 | 93 | 246 | 4.0 | 6.0 | 0.00 | 0.00 | 0.00 | 63 | |
| 20260901161808 | 93 | 238 | 5.0 | 7.0 | 0.00 | 0.00 | 0.00 | 62 | |
| 20260901161302 | 93 | 32 | 2.0 | 6.0 | 0.00 | 0.00 | 0.00 | 63 | |
| 20260901160757 | 93 | 45 | 3.0 | 10.0 | 0.00 | 0.00 | 0.00 | 63 | |
| 20260901160254 | 93 | 231 | 5.0 | 8.0 | 0.00 | 0.00 | 0.00 | 62 | |
| 20260901155753 | 93 | 194 | 2.0 | 8.0 | 0.00 | 0.00 | 0.00 | 62 | |
| 20260901155248 | 92 | 24 | 1.0 | 8.0 | 0.00 | 0.00 | 0.00 | 63 | |
| 20260901154743 | 93 | 40 | 4.0 | 10.0 | 0.00 | 0.00 | 0.00 | 62 | |
| 20260901154238 | 93 | 84 | 4.0 | 9.0 | 0.00 | 0.00 | 0.00 | 61 | |
| 20260901153733 | 93 | 58 | 4.0 | 9.0 | 0.00 | 0.00 | 0.00 | 62 | |
| 20260901153232 | 93 | 230 | 3.0 | 6.0 | 0.00 | 0.00 | 0.00 | 63 | |
| 20260901152732 | 92 | 12 | 1.0 | 7.0 | 0.00 | 0.00 | 0.00 | 63 | |
| 20260901152231 | 92 | 293 | 3.0 | 7.0 | 0.00 | 0.00 | 0.00 | 64 | |
| 20260901151727 | 93 | 110 | 2.0 | 8.0 | 0.00 | 0.00 | 0.00 | 63 | |
| 20260901151226 | 92 | 347 | 1.0 | 6.0 | 0.00 | 0.00 | 0.00 | 64 | |
| 20260901150721 | 91 | 132 | 3.0 | 8.0 | 0.00 | 0.00 | 0.00 | 63 | |
| 20260901150219 | 91 | 6 | 3.0 | 4.0 | 0.00 | 0.00 | 0.00 | 64 | |
| 20260901145717 | 91 | 103 | 2.0 | 9.0 | 0.00 | 0.00 | 0.00 | 65 | |
| 20260901145217 | 90 | 77 | 6.0 | 11.0 | 0.00 | 0.00 | 0.00 | 65 | |
| 20260901144712 | 90 | 350 | 2.0 | 8.0 | 0.00 | 0.00 | 0.00 | 67 | |
| 20260901144213 | 91 | 200 | 4.0 | 6.0 | 0.00 | 0.00 | 0.00 | 66 | |
| 20260901143708 | 91 | 265 | 2.0 | 9.0 | 0.00 | 0.00 | 0.00 | 65 | |
| 20260901143204 | 91 | 57 | 5.0 | 8.0 | 0.00 | 0.00 | 0.00 | 64 | |
| 20260901142700 | 92 | 246 | 3.0 | 8.0 | 0.00 | 0.00 | 0.00 | 63 | |
| 20260901142159 | 92 | 220 | 3.0 | 6.0 | 0.00 | 0.00 | 0.00 | 63 | |
| 20260901141654 | 91 | 6 | 4.0 | 6.0 | 0.00 | 0.00 | 0.00 | 64 | |
| 20260901141154 | 91 | 93 | 4.0 | 6.0 | 0.00 | 0.00 | 0.00 | 66 | |
| 20260901140653 | 90 | 220 | 2.0 | 4.0 | 0.00 | 0.00 | 0.00 | 67 | |
| 20260901140152 | 90 | 23 | 2.0 | 7.0 | 0.00 | 0.00 | 0.00 | 68 | |
| 20260901135647 | 90 | 171 | 4.0 | 7.0 | 0.00 | 0.00 | 0.00 | 68 | |
| 20260901135142 | 90 | 70 | 1.0 | 3.0 | 0.00 | 0.00 | 0.00 | 69 | |
| 20260901134638 | 89 | 55 | 4.0 | 8.0 | 0.00 | 0.00 | 0.00 | 68 | |
| 20260901134128 | 89 | 354 | 2.0 | 7.0 | 0.00 | 0.00 | 0.00 | 70 | |
| 20260901133627 | 89 | 224 | 4.0 | 8.0 | 0.00 | 0.00 | 0.00 | 70 | |
| 20260901133125 | 89 | 231 | 4.0 | 6.0 | 0.00 | 0.00 | 0.00 | 71 | |
| 20260901132620 | 89 | 168 | 5.0 | 9.0 | 0.00 | 0.00 | 0.00 | 71 | |
| 20260901132120 | 90 | 13 | 3.0 | 8.0 | 0.00 | 0.00 | 0.00 | 70 | |
| 20260901131619 | 89 | 265 | 2.0 | 3.0 | 0.00 | 0.00 | 0.00 | 71 | |
| 20260901131114 | 89 | 105 | 5.0 | 9.0 | 0.00 | 0.00 | 0.00 | 70 |